Back to catalog

STARLINK-2593

AliveCommunicationsVLEO
NORAD 48404·PAYLOAD·🇺🇸 United States

Launched May 4, 2021 from Cape Canaveral Space Force Station

Loading…

Next Passes (next 24 hours)

TLE

FreshSource: CelesTrak SupGP

Epoch: Sep 14, 2026, 13:22 UTC

1 48404C 21038BD  26257.55743056  .00022696  00000+0  73026-3 0  2573
2 48404  53.1599 173.7230 0001419  87.8884 289.5751 15.31672716    12

Track STARLINK-2593 in real time with AllMySat

Download on the App Store